#timestamp,LO_Frequency,Hit,StdDev 
1455534015.6,286046999.3,N
1455534035.4,286046998.7,N
1455534055.3,286046999.8,N
1455534075.1,286047002.3,N
1455534076.0,286047002.3,N
1455534095.8,286047002.6,N
1455534115.7,286047000.5,N
1455534135.5,286047002.6,N
1455534155.3,286046998.6,N
1455534175.2,286047001.1,N
1455534195.9,286047000.7,N
1455534215.7,286047001.1,N
1455534235.6,286046999.3,N
1455534255.4,286047003.9,N
1455534275.2,286047000.1,N
1455534295.0,286047002.3,N
1455534296.0,286047002.3,N
1455534315.8,286047001.7,N
1455534335.6,286047003.5,N
1455534355.4,286047003.6,N
1455534375.3,286047003.6,N
1455534395.1,286047001.4,N
1455534415.8,286047000.0,N
1455534435.7,286047002.4,N
1455534455.5,286047002.7,N
1455534475.3,286047005.4,Y
1455534495.2,286047002.9,P
1455534515.9,286047008.3,P
1455534535.7,286047009.8,P
1455534555.6,286047009.5,N
1455534575.4,286047013.9,Y
1455534595.2,286047006.4,P
1455534615.1,286047004.6,P
1455534616.0,286047004.6,P
1455534635.8,286047007.3,Y
1455534655.6,286047003.3,P
1455534675.5,286047004.6,P
1455534695.3,286047007.6,P
1455534715.1,286047004.5,N
1455534735.9,286047006.9,Y
1455534755.7,286047002.0,P
1455534775.5,286047003.2,N
1455534795.4,286047006.8,P
1455534815.2,286047006.2,Y
1455534835.0,286047002.9,P
1455534835.9,286047002.9,P
1455534855.8,286047006.8,P
1455534875.6,286047009.2,Y
1455534895.4,286047000.1,P
1455534915.3,286046998.2,N
1455534935.1,286047002.6,N
1455534955.8,286047004.3,N
1455534975.7,286047001.0,N
1455534995.5,286047003.7,N
1455535015.3,286047001.6,N
1455535035.2,286047003.1,N
1455535055.9,286047003.1,N
1455535075.7,286047001.7,N
1455535095.5,286046998.1,N
1455535115.4,286046999.9,N
1455535135.2,286047002.7,N
1455535155.0,286047005.6,N
1455535155.9,286047005.6,N
1455535175.8,286047009.1,Y
1455535195.6,286047004.9,P
1455535215.4,286047008.1,P
1455535235.3,286047012.3,P
1455535255.1,286047012.1,Y
1455535275.8,286047006.8,P
1455535295.7,286047007.2,P
1455535315.5,286047006.5,P
1455535335.3,286047008.6,Y
1455535355.2,286047002.7,P
1455535375.0,286047003.4,N
1455535375.9,286047003.4,N
1455535395.8,286047009.0,Y
1455535415.6,286047004.9,P
1455535435.4,286047004.5,P
1455535455.2,286047008.9,P
1455535475.1,286047006.2,Y
1455535476.0,286047006.2,P
1455535495.8,286047001.6,P
1455535515.7,286047001.4,N
1455535535.5,286047001.7,N
1455535555.3,286046999.7,N
1455535575.1,286047003.9,N
1455535595.9,286047003.4,N
1455535615.7,286047003.1,N
1455535635.5,286047005.2,N
1455535655.4,286047005.7,N
1455535675.2,286047002.9,N
1455535695.0,286047007.6,Y
1455535695.9,286047007.6,P
1455535715.8,286047001.9,N
1455535735.6,286047002.5,N
1455535755.4,286047004.6,N
1455535775.3,286047008.1,Y
1455535795.1,286047002.5,P
1455535815.8,286047000.3,N
1455535835.7,286046998.8,N
1455535855.5,286047002.5,N
1455535875.3,286046999.8,N
1455535895.2,286047002.6,N
1455535915.9,286047001.1,N
1455535935.7,286047000.8,N
1455535955.6,286046999.9,N
1455535975.4,286047000.0,N
1455535995.2,286046997.7,N
1455536015.0,286046995.2,N
1455536016.0,286046995.2,N
1455536035.8,286046993.8,N
1455536055.6,286046991.9,N
1455536075.5,286046989.8,Y
1455536095.3,286046987.2,P
1455536115.1,286046990.7,N
1455536135.8,286046987.6,N
1455536155.7,286046984.0,Y
1455536175.5,286046990.3,P
1455536195.3,286046991.2,P
1455536215.2,286046989.6,P
1455536235.0,286046990.8,Y
1455536235.9,286046990.8,P
1455536255.8,286047000.9,P
1455536275.6,286046998.7,N
1455536295.4,286046999.5,N
1455536315.2,286046995.3,N
1455536335.1,286046997.9,N
1455536336.0,286046997.9,N
1455536355.8,286046997.2,N
1455536375.6,286046998.9,N
1455536395.5,286046997.3,N
1455536415.3,286046994.3,N
1455536435.1,286046993.0,N
1455536455.9,286046989.2,Y
1455536475.7,286046992.3,P
1455536495.5,286046988.5,P
1455536515.4,286046989.2,P
1455536535.2,286046987.0,Y
1455536555.0,286046996.8,P
1455536556.0,286046996.8,N
1455536575.8,286046996.2,N
1455536595.6,286046996.6,N
1455536615.4,286046997.3,N
1455536635.3,286046995.5,N
1455536655.1,286046993.3,Y
1455536675.8,286046996.6,P
1455536695.7,286046996.1,P
1455536715.5,286046994.8,P
1455536735.3,286046992.6,Y
1455536755.2,286046996.1,P
1455536775.0,286046997.5,P
1455536775.9,286046997.5,P
1455536795.7,286046996.4,Y
1455536815.6,286047002.1,P
1455536835.4,286047002.0,N
1455536855.2,286046999.8,N
1455536875.1,286047001.0,N
1455536876.0,286047001.0,N
1455536895.8,286047002.6,N
1455536915.6,286047001.6,N
1455536935.5,286047000.7,N
1455536955.3,286047002.6,N
1455536975.1,286047001.3,N
1455536995.9,286047003.1,N
1455537015.7,286047001.7,N
1455537035.5,286047005.5,Y
1455537055.4,286047007.2,P
1455537075.2,286047004.9,N
1455537095.0,286047007.2,N
1455537095.9,286047007.2,N
1455537115.8,286047005.5,N
1455537135.6,286047001.6,N
1455537155.4,286047004.5,N
1455537175.3,286047003.3,N
1455537195.1,286047002.7,N
1455537196.0,286047002.7,N
1455537215.8,286047002.8,N
1455537235.7,286047002.4,N
1455537255.5,286046998.1,N
1455537275.3,286046998.7,N
1455537295.1,286047002.1,N
1455537315.9,286046998.6,N
1455537335.7,286046998.5,N
1455537355.5,286046998.3,N
1455537375.4,286047000.6,N
1455537395.2,286047002.8,N
1455537415.0,286046999.7,N
1455537415.9,286046999.7,N
1455537435.8,286047004.4,N
1455537455.6,286047003.3,N
1455537475.4,286047001.6,N
1455537495.3,286047000.3,N
1455537515.1,286046997.0,N
1455537516.0,286046997.0,N
1455537535.8,286046995.0,N
1455537555.7,286046994.7,N
1455537575.5,286046992.4,N
1455537595.3,286046991.0,N
1455534015.8,286047000.5,N
1455534035.7,286047002.5,N
1455534055.5,286047003.6,N
1455534075.3,286047003.2,N
1455534095.2,286047000.5,N
1455534115.9,286047002.7,N
1455534135.7,286047003.7,N
1455534155.5,286047002.7,N
1455534175.4,286046998.5,N
1455534195.2,286047002.8,N
1455534215.0,286047002.6,N
1455534215.9,286047002.6,N
1455534235.8,286046999.7,N
1455534255.6,286047000.1,N
1455534275.4,286047002.1,N
1455534295.3,286047002.4,N
1455534315.1,286046999.9,N
1455534335.8,286046997.1,N
1455534355.7,286046995.3,N
1455534375.5,286047000.9,N
1455534395.3,286047001.7,N
1455534415.2,286047005.8,N
1455534435.9,286047007.2,Y
1455534455.7,286047006.9,P
1455534475.6,286047007.6,N
1455534495.4,286047007.3,N
1455534515.2,286047007.3,N
1455534535.1,286047006.9,N
1455534536.0,286047006.9,N
1455534555.8,286047007.3,Y
1455534575.6,286046998.4,P
1455534595.5,286046996.6,N
1455534615.3,286046996.9,N
1455534635.1,286046997.6,N
1455534655.9,286046996.2,N
1455534675.7,286046996.2,N
1455534695.5,286046994.0,N
1455534715.3,286046997.1,N
1455534735.2,286046998.1,N
1455534755.0,286046998.3,N
1455534755.9,286046998.3,N
1455534775.7,286046998.2,N
1455534795.6,286046996.6,N
1455534815.4,286046996.5,N
1455534835.2,286046997.2,N
1455534855.1,286046999.4,N
1455534856.0,286046999.4,N
1455534875.8,286046998.7,N
1455534895.6,286046997.2,N
1455534915.5,286046997.5,N
1455534935.3,286046995.4,N
1455534955.1,286046995.2,N
1455534975.9,286046996.7,N
1455534995.7,286047000.3,N
1455535015.5,286047002.8,N
1455535035.3,286047000.4,N
1455535055.2,286047001.0,N
1455535075.0,286047000.8,N
1455535075.9,286047000.8,N
1455535095.7,286046998.1,N
1455535115.6,286046998.2,N
1455535135.4,286047002.8,N
1455535155.2,286047003.6,N
1455535175.1,286047004.2,N
1455535176.0,286047004.2,N
1455535195.8,286047003.4,N
1455535215.6,286047005.0,N
1455535235.5,286047006.5,N
1455535255.3,286047005.7,N
1455535275.1,286047005.6,N
1455535295.9,286047004.9,N
1455535315.7,286047005.8,N
1455535335.5,286047007.3,N
1455535355.4,286047006.9,N
1455535375.2,286047005.4,N
1455535395.0,286047003.8,N
1455535395.9,286047003.8,N
1455535415.8,286046998.1,N
1455535435.6,286047003.2,N
1455535455.4,286047002.3,N
1455535475.2,286047000.3,N
1455535495.1,286047002.7,N
1455535496.0,286047002.7,N
1455535515.8,286047001.9,N
1455535535.6,286046999.8,N
1455535555.5,286047000.4,N
1455535575.3,286047002.0,N
1455535595.1,286047002.1,N
1455535615.9,286046998.2,N
1455535635.7,286046999.8,N
1455535655.5,286047000.0,N
1455535675.4,286046999.9,N
1455535695.2,286047001.0,N
1455535715.0,286047003.5,N
1455535715.9,286047003.5,N
1455535735.8,286047004.3,N
1455535755.6,286047005.8,N
1455535775.4,286047003.6,N
1455535795.3,286047002.1,N
1455535815.1,286046997.4,N
1455535816.0,286046997.4,N
1455535835.8,286046998.9,N
1455535855.7,286047001.0,N
1455535875.5,286047000.4,N
1455535895.3,286047001.6,N
1455535915.1,286047003.3,N
1455535935.9,286047006.0,N
1455535955.7,286047003.1,N
1455535975.5,286047002.2,N
1455535995.4,286047000.5,N
1455536015.2,286046999.1,N
1455536035.0,286046998.4,N
1455536035.9,286046998.4,N
1455536055.8,286047001.1,N
1455536075.6,286046999.0,N
1455536095.4,286046998.4,N
1455536115.3,286046998.6,N
1455536135.1,286047000.2,N
1455536136.0,286047000.2,N
1455536155.8,286047000.7,N
1455536175.7,286046998.4,N
1455536195.5,286046997.2,N
1455536215.3,286046999.2,N
1455536235.2,286047000.7,N
1455536255.9,286047000.0,N
1455536275.7,286047002.1,N
1455536295.6,286047000.4,N
1455536315.4,286046999.4,N
1455536335.2,286046997.9,N
1455536355.0,286046995.5,N
1455536355.9,286046995.5,N
1455536375.8,286046995.1,N
1455536395.6,286046994.9,N
1455536415.4,286046997.1,N
1455536435.3,286046996.8,N
1455536455.1,286047000.2,N
1455536475.8,286047001.7,N
1455536495.7,286047002.3,N
1455536515.5,286047002.2,N
1455536535.3,286046998.3,N
1455536555.2,286046996.6,N
1455536575.9,286046998.2,N
1455536595.7,286046996.9,N
1455536615.6,286046997.7,N
1455536635.4,286046998.4,N
1455536655.2,286047001.3,N
1455536675.1,286047003.6,N
1455536676.0,286047003.6,N
1455536695.8,286047002.0,N
1455536715.6,286047002.0,N
1455536735.4,286047002.5,N
1455536755.3,286047003.7,N
1455536775.1,286047000.9,N
1455536795.8,286047002.3,N
1455536815.7,286047000.2,N
1455536835.5,286046998.5,N
1455536855.3,286047002.4,N
1455536875.2,286047003.8,N
1455536895.9,286047001.6,N
1455536915.7,286046999.7,N
1455536935.6,286047004.2,N
1455536955.4,286047002.6,N
1455536975.2,286047002.7,N
1455536995.1,286046998.4,N
1455536996.0,286046998.4,N
1455537015.8,286046996.5,N
1455537035.6,286046998.7,N
1455537055.5,286046998.4,N
1455537075.3,286047004.3,N
1455537095.1,286047003.7,N
1455537115.9,286047002.3,N
1455537135.7,286046999.7,N
1455537155.5,286046999.9,N
1455537175.3,286047002.7,N
1455537195.2,286046998.5,N
1455537215.0,286046997.7,N
1455537215.9,286046997.7,N
1455537235.7,286046997.1,N
1455537255.6,286046994.9,N
1455537275.4,286046996.8,N
1455537295.2,286046994.9,N
1455537315.1,286046997.9,N
1455537316.0,286046997.9,N
1455537335.8,286046998.3,N
1455537355.6,286047001.9,N
1455537375.5,286047002.6,N
1455537395.3,286047004.4,N
1455537415.1,286047005.5,N
1455537435.9,286047006.4,N
1455537455.7,286047010.2,Y
1455537475.5,286047012.0,P
1455537495.4,286047013.9,N
1455537515.2,286047009.8,N
1455537535.0,286047013.0,N
1455537535.9,286047013.0,N
1455537555.8,286047017.2,Y
1455537575.6,286047007.0,P
1455537595.4,286047008.2,P
